Time,TemperatureF,DewpointF,PressureIn,WindDirection,WindDirectionDegrees,WindSpeedMPH,WindSpeedGustMPH,Humidity,HourlyPrecipIn,Conditions,Clouds,dailyrainin,SoftwareType,DateUTC
2013-08-08 00:02:00,79.4,76.0,29.87,SE,133,11.0,14.0,90,0.00,,,0.00,weatherlink.com 1.10,2013-08-08 05:02:00,
2013-08-08 00:17:00,79.4,76.0,29.87,SE,142,10.0,15.0,90,0.00,,,0.00,weatherlink.com 1.10,2013-08-08 05:17:00,
2013-08-08 00:32:00,79.3,76.0,29.88,SSE,157,8.0,14.0,90,0.00,,,0.00,weatherlink.com 1.10,2013-08-08 05:32:00,
2013-08-08 00:47:00,79.4,76.0,29.87,SE,144,8.0,14.0,90,0.00,,,0.00,weatherlink.com 1.10,2013-08-08 05:47:00,
2013-08-08 01:02:00,79.3,76.0,29.87,SE,143,9.0,13.0,90,0.00,,,0.00,weatherlink.com 1.10,2013-08-08 06:02:00,
2013-08-08 01:17:00,79.2,76.0,29.88,SE,139,8.0,12.0,90,0.00,,,0.00,weatherlink.com 1.10,2013-08-08 06:17:00,
2013-08-08 01:32:00,79.1,76.0,29.87,SSE,155,7.0,12.0,90,0.00,,,0.00,weatherlink.com 1.10,2013-08-08 06:32:00,
2013-08-08 01:47:00,79.0,76.0,29.88,SSE,159,11.0,12.0,91,0.00,,,0.00,weatherlink.com 1.10,2013-08-08 06:47:00,
2013-08-08 02:02:00,78.9,76.0,29.87,SSE,156,9.0,10.0,91,0.00,,,0.00,weatherlink.com 1.10,2013-08-08 07:02:00,
2013-08-08 02:17:00,78.8,76.0,29.87,SSE,168,7.0,11.0,91,0.00,,,0.00,weatherlink.com 1.10,2013-08-08 07:17:00,
2013-08-08 02:32:00,78.8,76.0,29.87,SSE,149,7.0,12.0,91,0.00,,,0.00,weatherlink.com 1.10,2013-08-08 07:32:00,
2013-08-08 02:47:00,78.8,76.0,29.87,SSE,164,9.0,12.0,92,0.00,,,0.00,weatherlink.com 1.10,2013-08-08 07:47:00,
2013-08-08 03:02:00,78.7,76.0,29.86,South,188,4.0,12.0,92,0.00,,,0.00,weatherlink.com 1.10,2013-08-08 08:02:00,
2013-08-08 03:17:00,78.6,76.0,29.86,South,173,11.0,13.0,92,0.00,,,0.00,weatherlink.com 1.10,2013-08-08 08:17:00,
2013-08-08 03:32:00,78.5,76.0,29.86,SSW,194,9.0,14.0,92,0.00,,,0.00,weatherlink.com 1.10,2013-08-08 08:32:00,
2013-08-08 03:47:00,78.3,76.0,29.85,South,176,12.0,14.0,92,0.00,,,0.00,weatherlink.com 1.10,2013-08-08 08:47:00,
2013-08-08 04:02:00,78.4,76.0,29.85,SSE,161,7.0,14.0,92,0.00,,,0.00,weatherlink.com 1.10,2013-08-08 09:02:00,
2013-08-08 04:17:00,78.6,76.0,29.84,SSW,194,12.0,16.0,92,0.00,,,0.00,weatherlink.com 1.10,2013-08-08 09:17:00,
2013-08-08 04:32:00,78.5,76.0,29.84,SE,145,12.0,15.0,92,0.00,,,0.00,weatherlink.com 1.10,2013-08-08 09:32:00,
2013-08-08 04:47:00,78.4,76.0,29.84,SSE,162,11.0,16.0,92,0.00,,,0.00,weatherlink.com 1.10,2013-08-08 09:47:00,
2013-08-08 05:02:00,78.3,76.0,29.84,SSE,168,10.0,18.0,92,0.00,,,0.00,weatherlink.com 1.10,2013-08-08 10:02:00,
2013-08-08 05:17:00,78.2,76.0,29.84,SSE,154,10.0,15.0,92,0.00,,,0.00,weatherlink.com 1.10,2013-08-08 10:17:00,
2013-08-08 05:32:00,78.0,76.0,29.83,South,177,9.0,13.0,92,0.00,,,0.00,weatherlink.com 1.10,2013-08-08 10:32:00,
2013-08-08 05:47:00,77.9,76.0,29.83,SSE,163,8.0,14.0,92,0.00,,,0.00,weatherlink.com 1.10,2013-08-08 10:47:00,
2013-08-08 06:02:00,77.9,76.0,29.83,South,169,10.0,14.0,92,0.00,,,0.00,weatherlink.com 1.10,2013-08-08 11:02:00,
2013-08-08 06:17:00,77.9,76.0,29.83,SSE,150,8.0,14.0,92,0.00,,,0.00,weatherlink.com 1.10,2013-08-08 11:17:00,
2013-08-08 06:32:00,77.9,76.0,29.83,SSE,158,6.0,13.0,92,0.00,,,0.00,weatherlink.com 1.10,2013-08-08 11:32:00,
2013-08-08 06:47:00,77.8,76.0,29.83,South,172,8.0,14.0,93,0.00,,,0.00,weatherlink.com 1.10,2013-08-08 11:47:00,
2013-08-08 07:02:00,77.8,76.0,29.84,South,188,8.0,14.0,93,0.00,,,0.00,weatherlink.com 1.10,2013-08-08 12:02:00,
2013-08-08 07:17:00,77.8,76.0,29.84,South,182,9.0,13.0,93,0.00,,,0.00,weatherlink.com 1.10,2013-08-08 12:17:00,
2013-08-08 07:32:00,77.9,76.0,29.84,South,189,10.0,12.0,93,0.00,,,0.00,weatherlink.com 1.10,2013-08-08 12:32:00,
2013-08-08 07:47:00,78.1,76.0,29.84,South,188,7.0,11.0,93,0.00,,,0.00,weatherlink.com 1.10,2013-08-08 12:47:00,
2013-08-08 08:02:00,78.4,76.0,29.85,South,173,7.0,12.0,92,0.00,,,0.00,weatherlink.com 1.10,2013-08-08 13:02:00,
2013-08-08 08:17:00,78.8,76.0,29.85,SSE,161,7.0,11.0,92,0.00,,,0.00,weatherlink.com 1.10,2013-08-08 13:17:00,
2013-08-08 08:32:00,79.2,76.0,29.86,South,184,7.0,10.0,91,0.00,,,0.00,weatherlink.com 1.10,2013-08-08 13:32:00,
2013-08-08 08:47:00,79.7,77.0,29.86,South,177,5.0,12.0,90,0.00,,,0.00,weatherlink.com 1.10,2013-08-08 13:47:00,
2013-08-08 09:02:00,80.2,76.0,29.86,SSE,149,7.0,12.0,88,0.00,,,0.00,weatherlink.com 1.10,2013-08-08 14:02:00,
2013-08-08 09:17:00,80.7,77.0,29.87,SSE,150,9.0,12.0,87,0.00,,,0.00,weatherlink.com 1.10,2013-08-08 14:17:00,
2013-08-08 09:33:00,81.0,77.0,29.87,SE,137,7.0,13.0,87,0.00,,,0.00,weatherlink.com 1.10,2013-08-08 14:33:00,
2013-08-08 09:48:00,81.7,77.0,29.87,South,178,11.0,14.0,85,0.00,,,0.00,weatherlink.com 1.10,2013-08-08 14:48:00,
2013-08-08 10:03:00,82.1,77.0,29.87,SE,124,9.0,15.0,84,0.00,,,0.00,weatherlink.com 1.10,2013-08-08 15:03:00,
2013-08-08 10:18:00,82.8,78.0,29.88,SE,139,10.0,13.0,84,0.00,,,0.00,weatherlink.com 1.10,2013-08-08 15:18:00,
2013-08-08 10:33:00,82.9,78.0,29.87,SSE,147,11.0,20.0,84,0.00,,,0.00,weatherlink.com 1.10,2013-08-08 15:33:00,
2013-08-08 10:48:00,83.2,77.0,29.88,SE,137,11.0,16.0,82,0.00,,,0.00,weatherlink.com 1.10,2013-08-08 15:48:00,
2013-08-08 11:03:00,84.1,78.0,29.88,SE,144,9.0,19.0,81,0.00,,,0.00,weatherlink.com 1.10,2013-08-08 16:03:00,
2013-08-08 11:18:00,84.1,78.0,29.89,SSE,148,12.0,16.0,81,0.00,,,0.00,weatherlink.com 1.10,2013-08-08 16:18:00,
2013-08-08 11:33:00,85.0,78.0,29.88,SSE,158,9.0,16.0,80,0.00,,,0.00,weatherlink.com 1.10,2013-08-08 16:33:00,
2013-08-08 11:48:00,85.0,78.0,29.88,SE,136,11.0,21.0,80,0.00,,,0.00,weatherlink.com 1.10,2013-08-08 16:48:00,
2013-08-08 12:03:00,85.2,78.0,29.88,South,176,7.0,14.0,80,0.00,,,0.00,weatherlink.com 1.10,2013-08-08 17:03:00,
2013-08-08 12:18:00,86.3,78.0,29.88,ESE,113,8.0,14.0,77,0.00,,,0.00,weatherlink.com 1.10,2013-08-08 17:18:00,
2013-08-08 12:33:00,86.2,79.0,29.88,SE,127,9.0,16.0,78,0.00,,,0.00,weatherlink.com 1.10,2013-08-08 17:33:00,
2013-08-08 12:48:00,86.0,79.0,29.88,ESE,122,13.0,15.0,79,0.00,,,0.00,weatherlink.com 1.10,2013-08-08 17:48:00,
2013-08-08 13:03:00,85.2,78.0,29.88,ESE,119,15.0,19.0,79,0.00,,,0.00,weatherlink.com 1.10,2013-08-08 18:03:00,
2013-08-08 13:18:00,85.7,79.0,29.87,ESE,108,11.0,19.0,79,0.00,,,0.00,weatherlink.com 1.10,2013-08-08 18:18:00,
2013-08-08 13:33:00,85.3,79.0,29.87,East,100,13.0,20.0,80,0.00,,,0.00,weatherlink.com 1.10,2013-08-08 18:33:00,
2013-08-08 13:48:00,85.9,78.0,29.87,ESE,123,13.0,19.0,78,0.00,,,0.00,weatherlink.com 1.10,2013-08-08 18:48:00,
2013-08-08 14:03:00,85.8,78.0,29.87,East,86,13.0,21.0,78,0.00,,,0.00,weatherlink.com 1.10,2013-08-08 19:03:00,
2013-08-08 14:18:00,85.6,78.0,29.86,SE,127,12.0,21.0,79,0.00,,,0.00,weatherlink.com 1.10,2013-08-08 19:18:00,
2013-08-08 14:33:00,85.8,79.0,29.86,ESE,112,9.0,21.0,79,0.00,,,0.00,weatherlink.com 1.10,2013-08-08 19:33:00,
2013-08-08 14:48:00,86.1,79.0,29.86,ESE,123,9.0,20.0,78,0.00,,,0.00,weatherlink.com 1.10,2013-08-08 19:48:00,
2013-08-08 15:03:00,85.6,78.0,29.85,ESE,122,13.0,23.0,79,0.00,,,0.00,weatherlink.com 1.10,2013-08-08 20:03:00,
2013-08-08 15:18:00,85.9,79.0,29.85,ESE,114,10.0,21.0,79,0.00,,,0.00,weatherlink.com 1.10,2013-08-08 20:18:00,
2013-08-08 15:33:00,85.7,79.0,29.84,SE,136,18.0,21.0,79,0.00,,,0.00,weatherlink.com 1.10,2013-08-08 20:33:00,
2013-08-08 15:48:00,86.2,79.0,29.84,SE,138,13.0,19.0,79,0.00,,,0.00,weatherlink.com 1.10,2013-08-08 20:48:00,
2013-08-08 16:03:00,86.0,78.0,29.84,ESE,121,9.0,20.0,78,0.00,,,0.00,weatherlink.com 1.10,2013-08-08 21:03:00,
2013-08-08 16:18:00,85.3,79.0,29.83,SE,129,18.0,21.0,80,0.00,,,0.00,weatherlink.com 1.10,2013-08-08 21:18:00,
2013-08-08 16:33:00,85.8,79.0,29.83,SE,130,13.0,19.0,79,0.00,,,0.00,weatherlink.com 1.10,2013-08-08 21:33:00,
2013-08-08 16:48:00,85.1,78.0,29.82,ESE,117,13.0,20.0,80,0.00,,,0.00,weatherlink.com 1.10,2013-08-08 21:48:00,
2013-08-08 17:18:00,84.8,78.0,29.82,ESE,118,13.0,21.0,81,0.00,,,0.00,weatherlink.com 1.10,2013-08-08 22:18:00,
2013-08-08 17:33:00,85.0,78.0,29.81,SE,129,10.0,21.0,80,0.00,,,0.00,weatherlink.com 1.10,2013-08-08 22:33:00,
2013-08-08 17:48:00,84.4,78.0,29.81,East,98,15.0,22.0,81,0.00,,,0.00,weatherlink.com 1.10,2013-08-08 22:48:00,
2013-08-08 18:03:00,83.8,78.0,29.81,ESE,119,14.0,21.0,82,0.00,,,0.00,weatherlink.com 1.10,2013-08-08 23:03:00,
2013-08-08 18:18:00,83.7,78.0,29.80,ESE,110,11.0,21.0,82,0.00,,,0.00,weatherlink.com 1.10,2013-08-08 23:18:00,
2013-08-08 18:48:00,83.3,78.0,29.81,ESE,109,9.0,20.0,83,0.00,,,0.00,weatherlink.com 1.10,2013-08-08 23:48:00,
2013-08-08 19:18:00,82.7,78.0,29.81,ESE,108,15.0,18.0,84,0.00,,,0.00,weatherlink.com 1.10,2013-08-09 00:18:00,
2013-08-08 19:33:00,82.3,77.0,29.81,SE,125,12.0,18.0,84,0.00,,,0.00,weatherlink.com 1.10,2013-08-09 00:33:00,
2013-08-08 19:48:00,81.7,77.0,29.81,SE,125,19.0,22.0,86,0.00,,,0.00,weatherlink.com 1.10,2013-08-09 00:48:00,
2013-08-08 20:03:00,81.3,77.0,29.81,SE,131,9.0,18.0,87,0.00,,,0.00,weatherlink.com 1.10,2013-08-09 01:03:00,
2013-08-08 20:18:00,81.0,77.0,29.81,ESE,112,13.0,21.0,87,0.00,,,0.00,weatherlink.com 1.10,2013-08-09 01:18:00,
2013-08-08 20:33:00,80.8,77.0,29.81,SE,142,10.0,15.0,87,0.00,,,0.00,weatherlink.com 1.10,2013-08-09 01:33:00,
2013-08-08 20:48:00,80.5,77.0,29.82,SE,144,10.0,16.0,88,0.00,,,0.00,weatherlink.com 1.10,2013-08-09 01:48:00,
2013-08-08 21:03:00,80.3,77.0,29.82,SE,125,11.0,13.0,88,0.00,,,0.00,weatherlink.com 1.10,2013-08-09 02:03:00,
2013-08-08 21:48:00,79.9,77.0,29.83,ESE,115,6.0,15.0,89,0.00,,,0.00,weatherlink.com 1.10,2013-08-09 02:48:00,
2013-08-08 22:18:00,79.9,77.0,29.85,SE,137,7.0,10.0,89,0.00,,,0.00,weatherlink.com 1.10,2013-08-09 03:18:00,
2013-08-08 22:33:00,79.7,76.0,29.86,SE,144,6.0,10.0,89,0.00,,,0.00,weatherlink.com 1.10,2013-08-09 03:33:00,
2013-08-08 22:48:00,79.5,76.0,29.87,SSE,165,7.0,9.0,89,0.00,,,0.00,weatherlink.com 1.10,2013-08-09 03:48:00,
2013-08-08 23:03:00,79.3,76.0,29.87,SSE,156,5.0,10.0,89,0.00,,,0.00,weatherlink.com 1.10,2013-08-09 04:03:00,
2013-08-08 23:18:00,79.2,76.0,29.86,SSE,167,6.0,11.0,89,0.00,,,0.00,weatherlink.com 1.10,2013-08-09 04:18:00,
2013-08-08 23:33:00,79.3,76.0,29.86,SE,142,6.0,11.0,89,0.00,,,0.00,weatherlink.com 1.10,2013-08-09 04:33:00,
2013-08-08 23:48:00,79.1,76.0,29.86,SSE,156,5.0,10.0,90,0.00,,,0.00,weatherlink.com 1.10,2013-08-09 04:48:00,